Location: Clairmont
(55.2667°N, 118.8000°W)
Time: 09:08:59
(UTC+00:00)

Envisat - Visible Passes

Search period start: 27 October 2020 00:00
Search period end: 06 November 2020 00:00
Orbit: 764 x 766 km, 98.1° (Epoch: 26 October)

Date Brightness Start Highest point End Pass type
(mag) Time Alt. Az. Time Alt. Az. Time Alt. Az.
27 Oct 4.8 01:38:34 10° SSW 01:43:16 37° W 01:47:59 10° NNW visible
27 Oct 4.2 13:39:22 10° NNE 13:44:18 47° E 13:49:12 10° S visible
28 Oct 3.5 01:01:12 10° S 01:06:16 69° WSW 01:11:22 10° NNW visible
28 Oct 6.4 02:43:56 10° WSW 02:46:16 13° W 02:48:38 10° NW visible
28 Oct 5.4 13:02:57 10° NE 13:07:11 26° E 13:11:24 10° SSE visible
29 Oct 5.5 02:04:50 10° SW 02:08:56 24° W 02:13:05 10° NW visible
29 Oct 6.3 12:27:14 10° NE 12:29:53 14° E 12:32:29 10° ESE visible
29 Oct 3.4 14:04:43 10° NNE 14:09:50 73° ESE 14:14:55 10° S visible
30 Oct 4.4 01:26:57 10° S 01:31:48 44° W 01:36:42 10° NNW visible
30 Oct 4.6 13:28:04 10° NNE 13:32:52 39° E 13:37:36 10° SSE visible
31 Oct 3.2 00:49:46 10° SSE 00:54:52 82° WSW 01:00:00 10° NNW visible
31 Oct 6.1 02:31:39 10° WSW 02:34:43 16° W 02:37:48 10° NW visible
31 Oct 5.7 12:51:47 10° NE 12:55:41 22° E 12:59:33 10° SE visible
01 Nov 5.2 01:53:03 10° SSW 01:57:27 29° W 02:01:52 10° NNW visible
01 Nov 6.4 12:16:40 10° ENE 12:18:18 11° E 12:19:57 10° E visible
01 Nov 3.7 13:53:23 10° NNE 13:58:25 61° E 14:03:28 10° S visible
02 Nov 4.0 01:15:24 10° S 01:20:22 53° W 01:25:23 10° NNW visible
02 Nov 4.9 13:16:48 10° NNE 13:21:24 33° E 13:25:57 10° SSE visible
03 Nov 5.9 02:19:36 10° SW 02:23:11 19° W 02:26:47 10° NW visible
03 Nov 5.9 12:40:42 10° NE 12:44:10 18° E 12:47:36 10° SE visible
03 Nov 3.1 14:18:47 10° NNE 14:23:55 88° WNW 14:29:00 10° SSW visible
04 Nov 4.8 01:41:21 10° SSW 01:45:58 35° W 01:50:38 10° NNW visible
04 Nov 4.0 13:42:02 10° NNE 13:47:00 50° E 13:51:56 10° S visible
05 Nov 3.6 01:03:54 10° S 01:08:57 64° WSW 01:14:02 10° NNW visible
05 Nov 6.3 02:47:01 10° WSW 02:49:01 12° W 02:51:02 10° WNW visible
05 Nov 5.2 13:05:34 10° NNE 13:09:54 27° E 13:14:14 10° SSE visible
